Wetbulb
55.43 55.61 55.83 56.12 56.25 56.09 55.78 55.70 55.60 55.69 55.77 56.22 56.29 56.22 56.36 56.62 56.46 49.88 46.27 52.98 55.69 64.11 66.29 65.17 63.11 61.06 59.54 55.98 57.13 54.38 45.40 43.44 45.88 46.80 49.14 51.78 50.46 54.13 54.68 53.10 53.09 53.86 54.22 55.47 56.32
54.45 54.52 54.58 55.00 55.87 56.44 55.78 55.67 55.45 55.33 55.42 55.56 55.58 55.63 56.05 56.58 52.11 48.40 56.17 61.82 63.63 66.69 58.93 59.33 57.59 58.28 53.14 54.44 54.66 51.33 45.10 46.99 51.85 51.40 50.41 52.41 50.94 52.51 52.05 52.90 51.65 53.28 55.92 56.73 55.98
53.91 54.22 54.32 54.27 54.48 55.08 55.63 55.67 55.53 55.32 55.42 55.45 55.28 55.49 56.15 55.50 46.58 45.75 62.89 63.03 63.33 65.62 56.69 57.73 58.92 55.99 51.49 52.54 52.05 50.76 48.78 52.43 52.89 54.73 54.23 52.36 53.50 56.11 51.53 50.43 52.43 52.14 53.88 54.45 54.29
52.55 52.50 53.19 53.89 54.06 54.02 54.21 54.77 55.66 55.88 55.70 55.37 55.09 55.25 56.20 51.81 36.86 47.53 66.61 68.07 68.26 61.78 56.11 52.98 52.91 51.42 49.98 49.14 53.12 48.07 52.52 54.42 54.91 56.36 55.00 53.49 55.60 54.00 54.93 54.25 56.54 54.66 55.52 54.52 53.43
53.32 53.25 52.35 51.94 52.72 53.56 53.64 53.79 54.19 54.96 55.33 55.17 55.18 55.31 51.47 45.33 42.46 49.75 62.71 61.63 63.11 58.72 54.25 51.21 48.32 48.10 44.86 47.81 50.98 49.34 51.88 53.59 54.92 55.46 55.40 55.78 53.69 53.89 54.62 56.77 57.43 54.53 55.32 54.34 54.12
53.95 53.65 53.36 53.20 52.31 52.05 53.53 54.09 54.03 53.93 54.27 54.72 54.94 55.30 48.30 36.39 47.80 51.21 50.75 50.39 50.70 56.02 54.79 51.34 49.67 50.56 45.43 46.41 45.14 49.39 49.66 50.97 52.73 53.77 54.55 52.45 52.28 51.94 53.71 55.89 54.26 53.33 53.79 54.21 54.01
54.17 54.07 53.73 53.66 53.41 52.99 52.14 52.78 53.41 53.81 53.48 53.75 54.25 52.30 46.19 43.59 51.03 50.14 48.33 46.74 48.67 49.68 51.85 54.65 53.37 50.14 47.05 44.37 47.70 47.08 44.18 46.83 48.11 50.05 50.13 51.73 47.96 49.53 53.34 53.56 52.61 51.70 52.76 53.96 54.35
53.83 53.62 53.25 53.34 53.57 53.56 53.16 53.27 52.53 51.92 52.87 53.73 54.12 50.02 43.06 51.88 52.79 50.79 51.06 48.68 47.96 48.60 50.74 53.55 54.83 49.31 46.09 46.16 46.50 43.52 42.26 39.35 47.09 49.27 50.54 48.65 43.72 50.76 53.52 51.28 51.42 52.26 51.73 52.85 53.17
53.41 53.16 52.81 52.63 52.88 53.52 53.82 53.15 52.85 52.32 52.16 53.12 48.53 47.19 40.19 52.32 48.77 51.18 49.93 46.40 47.67 47.41 48.82 52.98 51.21 46.79 45.46 42.64 38.10 39.32 37.46 39.02 43.02 48.23 47.83 47.03 44.49 49.82 52.17 51.17 50.68 51.92 51.87 50.96 52.51
52.82 52.90 52.81 52.46 52.52 53.06 53.35 52.68 51.88 50.64 50.15 50.30 49.13 42.64 44.90 44.21 48.00 49.40 49.51 48.51 46.61 47.24 46.24 45.84 46.60 42.63 40.15 38.06 34.19 36.72 37.04 39.68 41.02 45.89 45.94 44.84 44.68 49.31 51.27 50.85 51.53 51.76 51.18 51.44 51.56
52.34 52.36 52.30 52.65 52.59 52.59 51.09 43.92 39.08 41.44 44.73 41.38 41.46 41.07 45.44 49.37 51.49 49.24 49.48 46.49 46.63 45.19 39.12 43.23 39.87 39.72 42.42 44.72 45.04 42.99 40.96 40.28 43.84 47.21 45.28 44.11 45.03 47.83 50.19 49.48 50.31 50.34 49.65 50.86 50.64
52.07 51.92 51.81 52.36 52.07 52.60 48.23 38.99 42.36 43.56 37.29 44.00 43.62 45.35 47.99 49.00 43.58 48.24 49.79 43.65 42.55 37.71 42.01 40.56 37.84 43.94 47.96 46.90 44.70 42.51 39.86 40.27 44.73 47.27 44.83 44.01 44.12 47.39 48.84 49.53 49.92 50.98 50.74 49.82 51.39
52.02 51.91 51.61 51.93 52.21 46.78 40.77 42.75 47.49 46.97 36.35 39.99 43.78 42.99 44.35 46.81 43.07 44.84 48.82 46.67 41.90 38.87 39.84 38.46 41.73 45.76 46.37 44.61 42.57 41.98 39.72 40.46 41.05 44.98 46.36 44.16 43.09 45.50 49.19 49.61 50.98 51.08 50.69 50.86 51.79
51.99 51.92 51.87 51.90 45.51 42.06 41.40 44.42 46.04 46.67 31.51 34.66 40.65 43.04 45.15 45.65 41.74 48.13 50.15 48.11 43.28 38.95 40.01 38.93 43.07 43.55 42.69 42.43 42.14 37.82 44.31 43.91 43.14 40.57 35.05 43.80 33.92 41.59 45.35 47.32 48.56 49.48 48.44 49.71 51.16
51.57 51.15 51.48 51.29 45.56 42.47 44.03 45.94 48.50 43.99 18.74 37.89 40.42 49.09 46.69 42.20 45.18 45.09 49.64 47.33 42.31 41.01 41.44 37.83 40.26 40.55 40.74 41.94 44.12 41.25 46.00 44.37 43.99 40.41 38.01 41.19 36.16 40.15 43.52 44.69 46.58 48.40 48.57 48.96 50.87
51.52 51.41 51.12 47.27 46.20 45.48 46.91 45.95 43.67 30.16 21.09 34.63 40.05 38.32 39.33 42.51 43.25 46.74 46.18 47.52 47.17 42.43 41.47 40.68 44.96 43.44 42.89 45.57 45.74 45.28 43.10 41.78 41.14 38.58 33.57 39.66 37.69 37.35 41.53 44.99 46.94 48.09 49.49 49.72 50.63
51.04 50.89 49.61 48.83 41.20 44.37 45.54 40.05 28.90 23.32 36.46 33.11 33.73 37.04 36.88 36.32 40.12 41.69 41.56 39.96 38.24 34.87 35.85 39.22 40.44 42.90 44.40 40.77 42.77 41.17 35.78 28.68 26.97 29.09 30.84 40.37 37.24 41.13 44.46 47.45 48.54 48.55 49.17 49.83 51.51
50.94 50.45 48.64 47.51 45.08 45.73 41.42 33.89 22.46 30.62 31.86 37.82 35.86 36.16 32.89 35.67 35.27 37.42 38.63 37.71 41.80 40.16 36.98 34.27 32.73 41.22 44.28 41.21 38.86 39.38 38.88 31.36 25.81 27.83 32.66 40.58 35.77 40.94 47.59 49.76 49.74 50.01 49.89 50.92 51.24
49.36 45.88 43.24 43.86 46.33 45.09 39.37 26.41 24.75 30.59 34.61 33.26 34.69 31.79 32.24 34.72 34.81 34.73 34.30 37.56 41.27 42.28 34.85 34.87 35.18 44.09 44.92 44.66 42.92 38.19 36.10 41.24 34.68 35.15 32.45 35.85 40.52 45.76 47.50 47.93 48.83 49.39 50.12 49.63 51.42
44.73 42.35 39.32 45.34 45.73 44.69 34.80 27.51 29.90 35.91 36.04 35.82 28.55 32.84 28.10 31.40 31.27 31.85 32.91 39.06 39.89 42.81 41.92 38.02 32.79 42.01 43.82 45.26 44.06 39.62 41.58 34.18 33.27 27.86 27.83 34.12 36.46 38.86 43.45 45.94 48.09 48.39 48.24 49.62 50.74
40.36 36.23 39.60 47.58 47.83 39.32 29.16 28.37 32.69 37.21 37.02 33.38 31.32 30.07 31.21 31.32 32.41 31.36 33.06 38.88 40.60 39.65 42.15 39.01 35.63 37.64 41.57 39.92 39.33 37.13 37.24 36.40 36.87 35.13 29.57 28.69 34.43 42.84 44.77 46.53 47.78 48.26 48.95 49.88 51.15
36.46 31.13 42.77 47.52 35.51 35.30 28.38 32.50 37.11 35.00 38.06 35.75 36.01 33.85 32.83 34.05 32.36 31.70 32.15 36.55 42.11 40.60 35.60 38.29 35.22 33.05 37.06 40.97 45.12 42.34 38.78 38.35 35.71 31.72 35.78 34.33 36.59 45.87 45.88 46.94 49.80 48.97 50.00 49.73 51.51
36.48 36.35 43.67 44.94 30.38 30.85 34.07 33.23 34.93 34.03 34.63 34.53 33.78 35.89 36.70 33.43 29.90 33.77 35.36 41.02 41.62 38.73 37.06 38.69 34.34 30.98 32.38 37.46 40.64 40.03 40.80 41.04 37.88 36.50 34.16 35.05 37.90 45.71 47.28 46.65 49.81 48.60 49.92 50.76 51.14
37.01 30.26 35.70 38.34 36.72 33.19 32.09 31.51 31.81 37.38 35.13 35.67 34.94 35.46 33.73 32.23 35.23 32.55 34.16 38.15 40.78 39.81 44.66 40.03 34.76 34.88 32.18 35.05 39.38 36.87 40.39 40.47 39.67 35.99 36.73 38.23 38.40 43.29 46.27 48.01 49.03 49.30 49.74 50.50 51.83
33.70 31.34 37.06 29.81 31.92 33.10 31.61 32.59 30.68 31.04 35.14 34.81 32.13 32.86 32.28 29.89 31.93 32.00 35.80 37.51 39.74 41.48 39.91 34.94 29.47 35.85 39.24 40.85 40.69 40.66 40.32 41.06 39.90 40.51 38.01 40.74 40.90 44.12 46.68 48.02 50.59 51.05 49.74 50.52 51.10
34.14 35.78 36.20 34.01 34.51 31.65 31.16 31.37 31.35 33.56 34.14 32.65 31.08 33.99 34.10 31.62 33.12 31.27 35.47 35.98 34.98 37.92 37.16 35.39 28.74 34.74 36.32 41.06 40.87 39.02 41.10 41.73 42.14 42.60 42.34 41.84 41.45 46.45 48.59 50.79 50.32 51.05 51.18 51.28 51.83
41.45 42.38 37.79 32.06 31.43 26.99 26.60 31.23 32.84 34.93 36.52 37.34 36.09 33.74 32.62 35.13 39.30 39.78 39.87 40.17 39.42 36.61 35.33 34.28 31.52 29.92 30.18 39.62 38.63 34.77 39.66 40.50 42.29 44.86 44.45 40.55 43.33 45.79 46.08 51.11 51.15 50.71 52.15 52.32 53.01
MSLP
1019.32 1019.12 1018.84 1018.43 1018.26 1017.87 1017.63 1017.67 1017.30 1017.02 1016.44 1016.12 1015.63 1015.25 1015.11 1014.36 1013.30 1012.08 1011.11 1009.03 1009.47 1009.11 1009.24 1009.59 1009.73 1009.94 1010.68 1010.84 1010.57 1011.48 1012.36 1011.89 1010.66 1009.80 1008.27 1007.00 1006.83 1005.55 1005.17 1005.00 1004.83 1004.83 1004.62 1004.44 1004.78
1019.16 1018.85 1018.52 1018.30 1018.01 1017.63 1017.56 1017.58 1017.23 1016.91 1016.37 1015.95 1015.55 1015.32 1014.96 1014.27 1013.24 1011.30 1008.47 1008.23 1008.21 1008.75 1009.75 1009.24 1009.60 1010.22 1010.73 1010.77 1010.26 1011.07 1011.50 1010.25 1008.50 1008.52 1007.96 1006.91 1006.91 1006.06 1005.73 1004.94 1004.62 1004.49 1004.29 1004.33 1004.85
1019.02 1018.66 1018.42 1018.10 1017.78 1017.48 1017.64 1017.35 1017.09 1016.63 1016.23 1015.87 1015.57 1015.31 1014.79 1014.21 1012.98 1008.82 1006.95 1007.40 1007.36 1008.44 1008.83 1008.90 1009.01 1009.99 1010.66 1010.43 1009.67 1010.05 1009.80 1008.28 1008.04 1007.32 1007.35 1007.03 1006.09 1005.82 1005.45 1004.95 1004.47 1004.39 1003.97 1004.46 1005.03
1019.34 1018.90 1018.44 1018.04 1017.75 1017.70 1017.24 1016.76 1016.44 1016.39 1016.14 1015.89 1015.62 1015.42 1014.80 1014.26 1011.76 1007.03 1006.79 1007.08 1007.06 1007.99 1008.81 1008.76 1008.95 1009.99 1010.08 1009.65 1008.64 1009.40 1008.94 1008.33 1007.25 1006.66 1007.02 1006.55 1005.94 1005.35 1004.86 1004.30 1003.76 1003.68 1003.30 1003.94 1004.89
1019.34 1019.09 1018.80 1018.38 1017.88 1017.38 1017.12 1016.91 1016.65 1016.56 1016.15 1015.88 1015.63 1015.38 1014.95 1013.69 1009.95 1007.03 1006.85 1007.28 1007.57 1007.93 1008.15 1008.27 1008.57 1009.27 1009.41 1008.74 1008.68 1008.94 1008.06 1007.53 1007.39 1006.99 1006.42 1006.11 1005.52 1004.62 1003.90 1003.51 1003.14 1003.19 1003.51 1003.54 1004.18
1019.02 1018.70 1018.34 1018.02 1017.75 1017.44 1017.05 1016.59 1016.27 1015.86 1015.64 1015.48 1015.37 1015.25 1015.26 1012.79 1008.71 1007.49 1007.15 1007.50 1007.70 1007.63 1007.76 1008.03 1007.64 1007.88 1008.45 1008.42 1008.80 1008.02 1008.19 1007.52 1007.06 1006.74 1006.32 1005.56 1004.68 1004.36 1003.34 1003.19 1003.06 1003.20 1003.27 1003.33 1003.65
1018.78 1018.38 1017.97 1017.65 1017.35 1016.98 1016.54 1016.13 1015.77 1015.42 1015.17 1014.97 1014.86 1014.98 1013.59 1009.29 1008.51 1007.86 1007.96 1007.24 1007.04 1007.24 1007.25 1007.27 1007.50 1007.64 1008.03 1008.60 1008.15 1008.03 1007.79 1006.92 1006.69 1005.99 1005.48 1005.25 1004.37 1003.36 1002.95 1002.94 1002.91 1002.97 1002.83 1002.90 1002.86
1018.43 1018.05 1017.69 1017.29 1016.81 1016.37 1015.97 1015.60 1015.20 1014.83 1014.54 1014.44 1014.60 1014.76 1011.45 1009.13 1008.49 1008.08 1007.90 1006.85 1007.12 1007.15 1006.87 1007.04 1007.32 1007.84 1008.09 1008.40 1008.26 1008.28 1008.04 1007.12 1006.02 1005.47 1004.65 1005.36 1003.33 1002.97 1002.45 1002.79 1002.64 1002.18 1002.15 1002.29 1002.56
1018.30 1017.83 1017.45 1017.00 1016.49 1015.86 1015.27 1014.78 1014.14 1013.62 1013.79 1014.30 1014.70 1014.28 1010.67 1008.49 1007.60 1006.10 1006.57 1006.25 1005.96 1006.80 1007.02 1006.94 1007.20 1007.83 1008.10 1008.68 1009.22 1008.93 1008.07 1007.37 1005.74 1005.38 1005.12 1004.90 1003.33 1002.41 1002.24 1002.43 1002.19 1001.72 1001.55 1001.78 1001.84
1018.24 1017.72 1017.20 1016.76 1016.33 1015.80 1015.18 1014.35 1012.58 1012.54 1012.85 1013.65 1013.71 1013.59 1010.28 1006.97 1005.50 1004.66 1004.87 1006.01 1006.01 1006.09 1006.96 1007.06 1007.29 1007.40 1007.53 1008.16 1007.68 1008.38 1007.93 1006.92 1005.45 1004.98 1004.83 1004.39 1003.76 1002.48 1001.83 1001.86 1001.53 1001.30 1001.22 1001.28 1001.44
1017.93 1017.46 1017.03 1016.53 1015.98 1015.55 1015.21 1014.74 1013.13 1012.81 1012.57 1011.80 1011.15 1009.07 1006.63 1005.89 1004.26 1003.80 1004.04 1005.07 1005.82 1006.07 1005.94 1006.34 1006.71 1005.11 1005.67 1006.17 1006.54 1007.01 1007.31 1006.28 1005.00 1004.99 1004.78 1004.11 1003.45 1002.40 1001.56 1001.67 1001.38 1000.98 1001.09 1000.88 1001.37
1017.83 1017.26 1016.69 1016.24 1015.82 1015.31 1015.43 1015.35 1014.04 1013.99 1012.01 1010.65 1009.56 1008.97 1007.45 1007.54 1006.69 1003.88 1003.50 1004.40 1004.94 1004.63 1005.43 1005.80 1002.91 1003.76 1005.07 1005.77 1006.20 1006.67 1006.64 1005.70 1004.80 1004.94 1004.84 1003.95 1003.41 1002.20 1001.18 1000.97 1000.61 1000.53 1000.44 1001.03 1001.77
1017.42 1016.94 1016.45 1015.86 1015.38 1015.31 1015.36 1014.67 1013.79 1013.73 1012.71 1008.73 1006.98 1005.96 1005.60 1005.79 1005.63 1003.34 1002.91 1003.03 1003.60 1004.25 1003.52 1002.57 1000.68 1003.63 1004.18 1004.48 1005.39 1005.44 1005.70 1005.69 1005.00 1005.17 1004.72 1004.16 1003.18 1002.07 1000.50 1000.45 999.95 999.82 999.84 1000.34 1000.84
1017.10 1016.57 1016.15 1015.64 1015.27 1015.42 1014.87 1013.90 1014.02 1013.72 1012.55 1007.68 1005.50 1003.80 1003.62 1003.56 1002.98 1002.31 1001.93 1001.97 1002.45 1002.63 1003.21 1002.57 1002.13 1002.09 1002.82 1002.95 1003.93 1004.34 1004.81 1004.95 1005.21 1005.69 1005.43 1004.17 1003.70 1002.24 1001.20 1000.61 1000.16 999.74 999.80 1000.12 1000.99
1016.82 1016.21 1015.81 1015.69 1015.53 1014.95 1014.11 1013.88 1013.34 1013.18 1011.25 1005.51 1003.82 1002.80 1002.68 1003.10 1001.47 1000.37 1000.78 1001.14 1001.27 1001.69 1002.15 1000.56 1000.74 1001.56 1001.59 1001.34 1003.02 1003.00 1004.12 1004.89 1005.37 1005.53 1005.35 1004.59 1004.71 1001.93 1001.51 1000.92 1000.14 999.88 999.61 1000.35 1001.19
1016.22 1015.73 1015.43 1015.12 1015.02 1014.22 1014.08 1013.83 1013.30 1013.06 1009.29 1005.34 1003.80 1003.34 1002.61 1002.60 1001.62 999.84 999.82 1000.53 1000.89 1001.15 1000.81 1000.28 999.93 1000.23 999.12 1001.00 1001.88 1003.10 1004.24 1005.04 1005.55 1006.03 1005.22 1003.97 1004.51 1001.74 1001.12 1000.16 999.52 999.30 999.80 1000.68 1001.50
1015.64 1015.19 1015.11 1014.94 1014.30 1014.02 1014.09 1013.90 1013.35 1011.12 1007.54 1006.01 1005.02 1004.06 1003.53 1002.40 1001.59 1000.78 1000.86 1000.24 999.69 1000.71 1000.02 1000.35 999.93 999.47 999.68 1000.79 1001.80 1002.91 1004.44 1006.12 1006.24 1006.07 1004.43 1003.25 1003.41 1000.76 999.65 999.18 998.96 999.29 1000.04 1001.04 1002.09
1015.09 1014.65 1014.21 1014.05 1013.81 1014.00 1014.28 1014.06 1012.47 1009.46 1008.04 1006.41 1006.31 1005.27 1004.55 1003.77 1002.66 1001.66 1000.70 1000.25 999.62 999.33 999.56 999.93 999.72 998.92 998.58 999.21 1000.43 1001.82 1003.12 1004.41 1005.25 1004.95 1003.87 1002.85 1001.60 998.96 998.20 997.98 998.26 998.98 999.84 1001.08 1002.13
1014.73 1014.32 1014.33 1013.54 1013.51 1014.07 1014.11 1013.28 1011.27 1009.71 1009.02 1008.03 1006.91 1006.01 1005.36 1005.33 1004.70 1003.17 1001.88 1001.55 1000.30 999.72 999.96 999.92 998.96 997.83 998.20 998.62 999.46 1000.83 1001.51 1003.08 1004.09 1004.00 1003.52 1002.09 1000.18 998.55 997.96 998.28 998.55 999.18 999.97 1001.27 1002.01
1015.09 1014.61 1014.22 1013.39 1013.34 1013.79 1013.83 1012.62 1011.28 1010.02 1009.38 1008.72 1008.21 1007.55 1007.07 1006.25 1005.70 1004.94 1003.65 1002.99 1001.50 1000.70 1000.10 999.73 999.16 997.84 997.07 997.90 998.03 998.88 1000.78 1002.73 1003.35 1003.59 1003.14 1001.60 1000.29 999.15 998.40 998.30 998.99 999.61 1000.44 1001.32 1002.17
1015.31 1014.98 1014.00 1013.26 1013.24 1013.76 1013.45 1012.80 1011.48 1010.44 1009.96 1009.59 1008.98 1008.67 1007.92 1007.09 1006.72 1006.04 1004.69 1003.65 1003.11 1002.03 1000.92 1000.23 999.61 998.12 997.37 996.25 996.90 998.31 998.98 999.97 1001.46 1001.97 1001.87 1001.38 999.61 998.22 997.93 998.11 998.82 999.45 1000.23 1001.02 1001.79
1015.86 1015.43 1014.54 1013.71 1014.01 1013.78 1013.55 1012.80 1011.77 1010.70 1010.09 1009.84 1009.22 1008.82 1008.02 1007.49 1006.89 1006.55 1005.49 1004.82 1004.43 1003.81 1003.01 1001.55 1000.16 998.80 997.14 996.19 996.25 997.08 998.17 998.65 999.67 1000.77 1000.81 1000.52 998.67 997.28 997.06 997.31 997.80 998.99 1000.04 1000.89 1001.57
1016.33 1015.79 1014.92 1014.33 1014.30 1013.98 1013.63 1012.92 1012.09 1011.00 1010.31 1009.79 1009.08 1008.60 1008.19 1007.84 1007.37 1006.50 1005.87 1005.14 1004.71 1004.36 1004.30 1003.35 1001.01 999.89 998.21 996.97 996.09 995.88 996.11 997.17 998.47 999.55 999.75 999.82 997.83 996.86 997.01 997.22 997.96 998.76 999.78 1000.68 1001.44
1016.67 1016.39 1015.83 1015.34 1015.08 1014.74 1013.88 1012.88 1011.99 1010.86 1010.27 1009.59 1009.05 1008.73 1008.34 1007.77 1007.31 1006.53 1005.76 1005.41 1005.00 1005.14 1004.74 1004.39 1002.89 1000.18 997.35 995.61 995.24 995.30 995.86 996.59 997.54 998.36 998.10 997.57 997.15 996.93 997.02 997.29 998.23 999.05 999.81 1000.30 1001.09
1017.01 1016.81 1016.43 1015.89 1015.18 1014.76 1014.14 1013.08 1012.23 1011.45 1010.56 1009.61 1009.17 1008.91 1008.74 1007.97 1007.17 1006.26 1005.59 1005.04 1005.00 1005.09 1005.29 1005.20 1003.97 1001.49 998.66 996.89 995.76 995.03 995.13 995.63 995.74 996.11 996.84 996.42 996.67 996.26 996.41 996.82 997.38 998.22 999.54 1000.27 1000.97
1017.12 1016.76 1016.42 1016.09 1015.57 1014.88 1013.92 1013.18 1012.37 1011.54 1011.23 1009.99 1009.60 1009.13 1008.64 1008.23 1007.66 1006.88 1006.07 1005.45 1004.95 1005.61 1005.91 1005.70 1004.58 1002.64 999.61 997.52 996.02 995.45 994.70 994.45 994.72 995.24 995.51 995.47 995.67 994.89 995.01 995.85 997.21 998.01 998.74 999.55 1000.10
1016.46 1016.33 1016.43 1015.76 1015.67 1015.19 1014.29 1013.56 1012.48 1011.81 1010.67 1010.24 1009.51 1009.14 1008.28 1007.45 1007.02 1006.50 1005.92 1005.48 1005.26 1005.50 1005.92 1006.16 1005.28 1003.85 1000.50 998.07 996.91 995.88 993.44 993.71 993.70 993.78 993.94 994.65 994.41 994.52 995.24 995.71 996.45 997.27 997.77 998.17 998.97
Wind_Speed
16 15 15 14 13 12 13 14 15 15 16 17 17 18 19 19 17 2 8 12 10 7 2 7 3 4 4 5 5 4 2 6 8 6 9 2 4 5 4 4 3 7 6 6 9
17 17 17 16 16 14 14 15 15 15 15 16 17 18 19 19 4 7 10 14 16 12 6 8 7 6 4 5 5 6 5 10 9 7 8 11 3 11 6 13 7 4 6 3 15
18 18 18 18 18 16 15 16 15 16 16 15 16 17 18 15 5 11 9 17 15 14 6 7 6 7 5 5 6 8 13 21 13 14 7 9 19 12 7 12 12 11 8 7 8
16 17 18 18 18 18 19 20 18 17 16 16 15 15 18 3 10 3 6 3 7 13 8 7 6 6 6 9 10 5 10 18 23 20 10 15 14 17 18 19 18 11 9 11 13
15 16 16 17 18 18 17 18 18 17 16 15 14 13 7 5 11 11 10 8 6 11 12 9 7 8 8 5 2 6 15 16 14 15 16 16 18 19 23 19 19 9 9 16 16
17 17 17 16 17 18 17 16 17 17 17 16 14 11 3 14 7 13 18 6 9 4 7 7 10 9 4 8 5 7 8 13 11 17 16 20 17 10 17 14 12 7 12 13 15
17 17 19 18 18 18 19 18 18 17 19 17 15 11 15 25 8 7 11 3 5 11 9 11 11 6 6 6 7 7 14 17 11 11 19 15 16 21 16 10 13 10 11 14 18
18 18 20 21 21 20 21 20 20 21 20 18 15 12 15 6 14 21 21 23 12 9 7 9 6 9 5 2 7 4 3 8 6 15 14 7 27 19 18 8 15 12 12 13 14
19 18 19 21 22 23 22 23 27 27 23 17 11 10 15 9 11 21 15 14 13 10 6 6 7 7 4 7 4 2 14 16 22 10 6 7 15 10 9 8 12 15 12 11 16
19 19 19 20 21 21 21 26 26 13 5 7 10 3 10 10 8 7 11 17 7 6 4 8 6 6 5 6 14 10 8 6 17 1 8 13 13 17 16 9 15 15 11 12 14
22 19 18 18 21 19 14 8 6 2 2 9 6 8 4 14 8 4 6 12 10 5 13 9 8 20 18 22 17 8 7 9 8 4 7 8 9 15 14 7 14 15 11 12 7
21 21 21 18 18 18 4 2 4 3 13 13 21 24 29 11 11 8 15 8 10 18 10 8 32 19 16 16 16 9 9 17 19 8 7 9 14 16 12 13 9 13 14 6 5
21 20 19 20 18 6 2 6 5 9 7 11 15 11 16 15 14 11 11 8 7 15 26 29 18 16 20 16 18 18 18 15 20 2 6 8 14 12 16 5 9 9 8 6 11
20 19 18 18 7 3 5 1 5 8 6 10 7 8 7 9 15 18 10 7 8 19 19 19 21 23 18 25 17 19 16 21 18 5 6 4 7 5 8 11 7 11 7 10 7
19 19 17 11 9 6 5 9 12 2 6 2 3 4 4 14 5 17 19 11 11 10 12 12 19 24 22 20 22 18 11 9 10 6 4 9 3 8 4 8 11 11 6 6 8
19 19 16 7 3 8 6 10 1 2 10 7 4 11 3 11 19 4 13 10 8 4 9 10 9 26 26 14 18 7 4 2 4 4 12 19 7 6 7 9 7 4 1 7 10
21 20 14 7 5 1 5 4 2 6 4 1 11 16 10 9 8 10 11 17 19 12 16 6 12 3 7 15 6 8 8 2 3 5 7 7 6 16 7 9 10 9 7 8 9
19 19 8 7 2 3 1 2 7 6 11 16 16 15 6 20 8 13 11 15 23 14 11 14 12 22 12 9 13 15 15 8 7 5 5 7 8 10 8 10 8 9 8 10 11
16 1 3 4 4 3 2 7 4 3 11 11 14 7 8 14 8 12 7 7 12 20 6 12 15 3 17 6 15 10 18 12 3 2 2 5 8 10 2 5 6 7 10 10 12
6 4 4 6 5 2 1 6 4 5 10 11 7 7 13 15 9 15 6 15 11 4 3 3 5 9 19 19 18 11 11 9 5 5 5 5 4 7 4 6 3 7 8 9 8
3 4 3 5 3 1 3 4 5 7 10 5 7 9 12 13 6 7 5 8 17 18 10 4 2 3 6 17 21 8 8 5 8 6 6 2 7 8 9 9 11 9 9 12 13
3 3 5 5 1 1 1 3 8 8 6 5 6 12 12 9 6 7 7 10 11 15 10 6 5 6 13 2 20 13 12 11 10 6 6 4 9 5 9 10 14 11 10 8 9
4 3 5 1 3 1 3 4 6 5 6 3 4 3 9 8 6 2 8 11 8 14 13 9 6 5 7 2 4 23 19 17 4 4 7 10 10 3 4 6 7 11 10 9 11
3 4 2 2 2 4 4 4 4 6 9 6 7 4 8 11 6 8 13 10 15 16 14 7 5 11 13 3 5 6 22 11 17 13 9 9 3 3 5 9 6 7 7 11 12
3 2 3 5 3 5 3 4 7 7 4 4 4 2 8 8 11 11 13 12 12 14 2 4 5 7 16 22 9 3 12 21 20 13 16 11 9 9 11 10 15 11 9 11 12
1 2 3 4 7 6 3 2 5 8 4 6 4 9 6 6 9 10 12 11 4 6 6 4 5 7 8 14 21 16 4 22 20 16 11 8 9 9 9 6 8 13 14 15 16
2 1 2 3 5 3 3 6 8 13 7 8 10 6 6 8 7 8 9 8 7 4 5 6 3 11 7 8 11 16 28 9 15 17 17 11 10 8 5 13 14 11 16 18 17
Wind_Direction
339 336 331 326 320 320 322 319 321 323 326 326 331 333 329 331 316 335 256 214 196 191 176 128 135 173 97 207 152 135 95 252 239 189 252 261 351 296 293 250 291 211 175 232 142
339 336 334 330 324 319 314 309 312 317 322 326 331 331 328 331 310 258 230 236 218 152 206 171 159 157 187 229 170 157 166 236 218 200 247 291 243 292 330 308 280 258 256 111 148
339 338 334 331 329 327 316 305 302 308 313 320 326 328 326 330 306 249 195 228 235 186 197 189 126 157 212 200 192 188 214 236 273 243 217 274 289 294 271 282 262 256 238 163 164
334 327 326 329 326 321 322 322 309 303 304 308 315 322 321 293 239 242 124 149 228 180 187 166 149 177 221 198 209 226 229 239 246 265 274 263 285 284 284 269 274 235 216 163 182
327 327 324 317 317 320 315 311 309 302 297 298 305 317 343 250 234 268 316 359 92 154 191 177 152 182 224 207 181 199 245 249 265 276 272 279 267 265 277 278 277 254 176 184 191
324 320 319 320 318 310 309 302 296 297 299 297 299 304 229 248 256 268 277 271 259 188 170 178 192 184 203 241 231 259 268 268 262 260 265 265 272 281 276 280 273 205 205 199 199
333 330 321 315 313 311 307 299 297 295 295 295 295 286 254 243 279 311 326 273 230 233 231 204 216 189 164 309 278 253 285 282 262 261 259 279 282 268 274 264 272 229 221 210 210
330 330 327 325 317 309 307 304 296 288 282 279 282 272 256 256 248 262 255 273 251 287 233 237 196 222 170 271 337 3 306 268 254 250 257 180 267 276 271 250 264 257 230 212 218
327 324 324 324 319 316 309 305 298 282 269 258 256 231 273 285 221 240 211 228 219 223 229 252 133 192 118 205 320 281 260 268 275 233 253 181 277 269 274 254 267 271 256 214 224
325 323 321 319 320 316 312 313 297 298 229 197 230 217 242 232 235 212 189 210 228 185 168 187 188 178 160 141 212 212 229 242 250 323 215 255 259 273 274 271 280 280 266 219 223
325 324 320 318 319 318 325 337 7 26 206 214 209 247 294 15 276 231 152 161 174 212 185 175 194 209 191 206 215 222 223 249 276 241 249 244 262 275 279 289 270 268 251 238 233
322 321 321 319 315 314 352 235 238 335 297 265 252 240 266 288 298 287 132 141 177 197 164 170 227 199 205 207 216 223 242 258 280 274 227 271 261 268 282 275 235 248 252 167 161
319 317 318 318 316 322 194 239 314 329 270 274 224 227 211 195 227 249 181 151 174 190 191 202 230 203 202 204 211 222 228 246 247 359 292 303 286 280 283 287 261 250 237 188 193
319 316 318 323 327 313 263 346 328 303 293 276 222 252 197 210 227 223 222 185 190 198 199 232 227 190 202 215 197 222 215 239 257 277 253 130 286 302 287 300 293 274 252 235 161
316 316 315 324 298 275 274 340 320 207 293 244 136 146 231 183 152 218 190 214 202 164 177 210 184 212 213 209 199 224 211 224 244 249 293 254 275 268 241 281 271 263 274 225 151
315 313 314 300 217 245 324 295 259 177 244 306 72 350 44 220 249 331 167 207 174 223 230 216 206 200 218 199 201 167 150 264 274 269 261 263 186 215 229 222 252 240 51 136 141
313 308 302 281 255 104 341 351 179 221 296 32 357 343 11 333 220 248 247 192 187 190 214 176 225 211 169 204 162 169 105 277 288 216 224 239 191 245 248 236 229 245 179 144 130
313 310 286 243 227 249 115 106 229 258 259 347 358 331 34 6 343 336 236 200 217 197 181 199 210 210 171 181 184 199 177 165 204 197 190 169 234 245 223 266 232 242 139 141 149
322 281 277 273 214 160 209 213 234 289 21 344 341 342 352 354 331 350 343 253 225 215 181 196 231 173 185 167 160 192 206 181 14 312 72 220 285 329 316 243 200 149 133 159 160
328 325 287 306 151 147 179 244 274 339 1 354 358 346 335 339 5 359 315 26 348 330 172 268 205 214 206 192 197 165 152 175 199 209 207 267 255 219 225 261 146 148 164 154 142
24 339 282 347 166 135 220 258 304 308 309 327 341 312 309 316 4 339 299 345 23 349 332 203 148 278 157 204 185 173 197 160 151 213 167 184 257 219 206 190 190 196 179 164 166
12 329 336 356 188 214 218 257 304 296 300 288 254 271 275 321 314 313 276 324 7 17 349 288 225 215 227 246 194 198 195 204 181 204 227 159 259 226 213 202 181 182 174 173 157
344 297 5 2 337 147 294 277 270 294 287 277 277 255 286 294 309 307 317 328 323 13 345 331 283 261 338 348 181 198 202 205 166 94 193 184 254 174 171 163 204 157 169 162 152
340 335 319 16 222 303 310 269 280 281 294 249 247 267 288 286 293 289 281 286 309 312 328 338 282 249 215 226 142 185 198 171 187 217 217 222 183 196 185 155 164 168 170 159 163
16 314 341 322 321 295 283 297 312 339 308 289 301 264 301 284 303 272 278 302 305 314 10 39 276 307 277 259 279 200 190 198 205 198 197 219 192 210 194 184 182 182 140 149 163
26 340 345 273 291 301 303 306 299 330 259 293 252 290 286 268 281 290 295 296 309 301 349 3 281 323 267 244 241 248 248 201 212 213 226 173 220 206 202 124 121 176 166 174 180
277 234 213 285 317 341 276 343 295 311 283 231 295 305 280 274 316 292 289 279 237 228 260 296 333 351 280 244 242 257 239 220 211 202 201 181 216 157 144 168 176 177 184 183 181